Hermosillo, México

2:13 PM MST en Diciembre 18, 2018 (GMT -0700)
Gen Ignacio Pesqueira Garcia

Tiempo Historia de MMHO - Diciembre, 2018

Change the Weather History Date:

Jueves, Diciembre 6, 2018

  Actual Average Record
Temperature  
Temperatura media 70 ° F -  
Temperatura máxima 80 ° F 74 ° F 93 ° F (2010)
Temperatura mínima 59 ° F 44 ° F 35 ° F (2001)
Cooling Degree Days 4    
Growing Degree Days 20 (Base 50)    
Moisture  
Punto de rocío 56 ° F    
Average Humidity 60    
Maximum Humidity 78    
Minimum Humidity 39    
Precipitación  
Precipitación 0.00 pul - - ()
Presión al nivel del mar  
Presión al nivel del mar 30.01 pul    
Viento  
Velocidad del viento 3 mph ()    
Velocidad máxima del viento 13 mph    
Max Gust Speed -    
Visibilidad 9.7 Millas    
Eventos      
Averages and records for this station are not official NWS values.
T = Trace of Precipitation, MM = Missing Value Source: Averaged Metar Reports

Daily Weather History Graph

Daily Weather History Graph

Search for Another Location

Airport or City:

Astronomía

Dec. 06, 2018 Salida Puesta
Hora real 7:04 AM MST 5:26 PM MST
Crepúsculo civil 6:38 AM MST 5:52 PM MST
Crepúsculo náutico 6:09 AM MST 6:21 PM MST
Crepúsculo astronómico 5:40 AM MST 6:50 PM MST
Luna 6:21 AM MST (12/6) 5:19 PM MST (12/6)
Horas de luz 11h 13m
Horas de luz
10h 21m
Creciente menguante, 0% of the Moon is Illuminated
Dic 6
Creciente menguante
Dic 7
Nueva
Dic 15
Cuarto creciente
Dic 22
Luna llena
Dic 29
Cuarto menguante

Hourly Weather History & Observations

Hora (MST) Temp. Punto de rocío Humedad Presión Visibilidad Wind Dir Velocidad del viento Velocidad de ráfagas Precip Eventos Condiciones
12:40 AM 66.2 ° F 48.2 ° F 52% 30.03 pul 10.0 mi Sin viento Sin viento - N/A   Nublado
1:42 AM 64.4 ° F 48.2 ° F 56% 30.03 pul 10.0 mi Sin viento Sin viento - N/A   Nublado
2:41 AM 66.2 ° F 50.0 ° F 56% 30.03 pul 10.0 mi Sin viento Sin viento - N/A   Nublado
3:42 AM 64.4 ° F 51.8 ° F 64% 30.03 pul 10.0 mi Sin viento Sin viento - N/A   Nublado
4:57 AM 64.4 ° F 51.8 ° F 64% 30.04 pul 10.0 mi Sin viento Sin viento - N/A   Muy nublado
5:42 AM 62.6 ° F 51.8 ° F 68% 30.04 pul 10.0 mi ENE 4.6 mph - N/A   Muy nublado
6:40 AM 62.6 ° F 51.8 ° F 68% 30.05 pul 10.0 mi NE 4.6 mph - N/A   Nublado
7:40 AM 62.6 ° F 53.6 ° F 72% 30.06 pul 10.0 mi Este 6.9 mph - N/A   Muy nublado
9:40 AM 71.6 ° F 55.4 ° F 57% 30.08 pul 10.0 mi ESE 8.1 mph - N/A   Nubes dispersas
10:40 AM 73.4 ° F 59.0 ° F 61% 30.09 pul 10.0 mi ESE 6.9 mph - N/A   Nubes dispersas
10:45 AM 72 ° F 58 ° F 52% 30.07 pul 7 mi NNE 4.5 mph - -   Parcialmente nublado
11:40 AM 75.2 ° F 59.0 ° F 57% 30.04 pul 10.0 mi Este 4.6 mph - N/A   Nubes dispersas
12:40 PM 77.0 ° F 59.0 ° F 54% 30.01 pul 10.0 mi SSE 8.1 mph - N/A   Nubes dispersas
1:40 PM 78.8 ° F 59.0 ° F 51% 29.99 pul 10.0 mi SSO 9.2 mph - N/A   Muy nublado
1:41 PM 79 ° F 59 ° F 39% 29.95 pul 7 mi SE 2.2 mph - -   Muy nublado
2:40 PM 78.8 ° F 59.0 ° F 51% 29.97 pul 10.0 mi Sur 5.8 mph - N/A   Muy nublado
3:40 PM 78.8 ° F 59.0 ° F 51% 29.96 pul 10.0 mi Sur 5.8 mph - N/A   Muy nublado
4:40 PM 76 ° F 58 ° F 44% 29.93 pul 7 mi SO 4.5 mph - -   Muy nublado
4:40 PM 77.0 ° F 59.0 ° F 54% 29.97 pul 10.0 mi Sur 12.7 mph - N/A   Muy nublado
5:40 PM 75.2 ° F 60.8 ° F 61% 29.97 pul 10.0 mi SSO 6.9 mph - N/A   Nubes dispersas
6:40 PM 71.6 ° F 60.8 ° F 69% 29.98 pul 10.0 mi Sin viento Sin viento - N/A   Nubes dispersas
7:40 PM 69.8 ° F 59.0 ° F 68% 30.00 pul 10.0 mi Sin viento Sin viento - N/A   Nubes dispersas
8:40 PM 68.0 ° F 59.0 ° F 73% 30.01 pul 10.0 mi Sin viento Sin viento - N/A   Muy nublado
9:40 PM 68.0 ° F 60.8 ° F 78% 30.01 pul 10.0 mi NE 4.6 mph - N/A   Parcialmente nublado
10:40 PM 66.2 ° F 59.0 ° F 78% 30.01 pul 10.0 mi ENE 4.6 mph - N/A   Parcialmente nublado
11:40 PM 66.2 ° F 57.2 ° F 73% 30.01 pul 10.0 mi SE 3.5 mph - N/A   Parcialmente nublado